Preview of NWS' New Version of Forecast
This preview is not operational and should not be used for support decisions.

Regional Weather Roundup (RWR)

Issued by National Weather Service (NWS)

                            
000
ASUS43 KMKX 200210
RWRWI 

WISCONSIN REGIONAL WEATHER ROUNDUP
NATIONAL WEATHER SERVICE MILWAUKEE/SULLIVAN WI
900 PM CDT FRI APR 19 2019

NOTE: "FAIR" INDICATES FEW OR NO CLOUDS BELOW 12,000 FEET WITH NO
SIGNIFICANT WEATHER AND/OR OBSTRUCTIONS TO VISIBILITY.

WIZ001-002-006>008-014>016-023>028-200300-
NORTHWEST WISCONSIN
  
CITY           SKY/WX    TMP DP  RH WIND       PRES   REMARKS
SUPERIOR ARPT  FAIR      43  28  56 CALM      29.88F                  
ASHLAND        FAIR      49  24  37 E6        29.92S                  
HAYWARD        FAIR      44  25  47 CALM      29.92S                  
SIREN          FAIR      46  31  55 CALM      29.92S                  
CUMBERLAND     FAIR      46  28  49 S5        29.93S                  
RICE LAKE      FAIR      49  25  39 CALM      29.94S                  
CHETEK         FAIR      45  27  49 CALM      29.93S                  
LADYSMITH      FAIR      45  35  67 CALM      29.94S                  
EAU CLAIRE     FAIR      47  22  37 CALM      29.92S                  
MENOMONIE      FAIR      49  22  34 SW3       29.93S                  
NEW RICHMOND   FAIR      47  31  53 SE3       29.93S                  
OSCEOLA        FAIR      46  32  58 CALM      29.95R                  
$$
 
WIZ003>005-009-010-017-018-200300-
NORTH CENTRAL WISCONSIN
  
CITY           SKY/WX    TMP DP  RH WIND       PRES   REMARKS
MANITOWISH WTR FAIR      38  22  53 CALM      29.93F                  
ARBOR VITAE    FAIR      40  27  61 CALM      29.93F                  
WOODRUFF       FAIR      40  27  61 CALM      29.93F                  
RHINELANDER    NOT AVBL                                               
EAGLE RIVER    FAIR      36  26  68 CALM      29.93F                  
LAND O LAKES   FAIR      34  23  66 CALM      29.96S                  
PHILLIPS       FAIR      38  26  62 CALM      29.92S                  
TOMAHAWK       FAIR      35  26  69 CALM      29.94S                  
MEDFORD        FAIR      40  26  57 E3        29.92F                  
MERRILL        FAIR      40  25  55 CALM      29.94S                  
$$
 
WIZ029-030-035-036-043>047-200300-
CENTRAL WISCONSIN
  
CITY           SKY/WX    TMP DP  RH WIND       PRES   REMARKS
WAUSAU         NOT AVBL                                               
MOSINEE        CLEAR     48  18  29 CALM      29.93S                  
MARSHFIELD     NOT AVBL                                               
STEVENS POINT  FAIR      42  26  53 CALM      29.93S                  
WAUPACA        FAIR      51  25  37 E3        29.93R                  
WAUTOMA        NOT AVBL                                               
WISC RAPIDS    FAIR      47  23  38 CALM      29.93R                  
CAMP DOUGLAS   FAIR      44  28  52 CALM      29.92S                  
$$
 
WIZ011>013-019>022-031-037>040-048>050-200300-
NORTHEAST WISCONSIN
  
CITY           SKY/WX    TMP DP  RH WIND       PRES   REMARKS
ANTIGO         FAIR      43  31  63 CALM      29.94R                  
SHAWANO        FAIR      44  24  46 CALM      29.93S                  
OCONTO         FAIR      43  22  43 E6        29.94R                  
STURGEON BAY   FAIR      43  25  49 E5        29.95                   
GREEN BAY      FAIR      41  26  55 NE8       29.93S                  
MANITOWOC      FAIR      41  27  57 N5        29.95R                  
APPLETON       CLEAR     46  16  29 NE7       29.91S                  
CLINTONVILLE   FAIR      45  25  45 SE6       29.93R                  
OSHKOSH        FAIR      47  26  44 NE8       29.91S                  
$$
 
WIZ032>034-041-042-053>061-200300-
SOUTHWEST WISCONSIN
  
CITY           SKY/WX    TMP DP  RH WIND       PRES   REMARKS
LA CROSSE      FAIR      48  29  47 NW6       29.92S                  
SPARTA         FAIR      43  31  62 CALM      29.94R                  
VIROQUA        FAIR      50  26  39 N5        29.93S                  
BOSCOBEL       FAIR      46  28  49 CALM      29.92R                  
PRAIRIE DU CHI FAIR      54  22  29 CALM      29.92S                  
PLATTEVILLE    FAIR      46  31  58 N8        29.91R                  
$$

WIZ056-057-062-063-064-067-068-200300-
SOUTH CENTRAL WISCONSIN
  
CITY           SKY/WX    TMP DP  RH WIND       PRES   REMARKS
REEDSBURG      FAIR      50  23  34 N6        29.91S                  
BARABOO/DELLS  FAIR      47  24  39 NW3       29.91R                  
LONE ROCK      FAIR      50  30  46 N7        29.91S                  
MINERAL POINT  FAIR      50  25  37 N9        29.91R                  
MADISON        FAIR      47  27  45 NE6       29.90R                  
MIDDLETON      FAIR      46  32  59 CALM      29.91R                  
WATERTOWN      FAIR      46  23  39 NE6       29.90R                  
MONROE         FAIR      48  20  33 MISG      29.89S                  
JANESVILLE     FAIR      50  19  29 NE10      29.89S                  
$$
 
WIZ051-052-058>065-066-070>072-200300-
SOUTHEAST WISCONSIN
  
CITY           SKY/WX    TMP DP  RH WIND       PRES   REMARKS
MILWAUKEE      FAIR      44  25  47 N14G32    29.90R                  
WAUKESHA       CLEAR     43  21  42 N7        29.91R                  
MILWAUKEE/TIMM FAIR      43  18  36 N10       29.91R                  
RACINE         FAIR      41  28  60 N17G29    29.90S                  
KENOSHA        FAIR      43  26  51 N10G23    29.89R                  
FOND DU LAC    FAIR      43  30  60 NE6       29.92R                  
SHEBOYGAN      FAIR      42  25  50 N9        29.93R                  
WEST BEND      FAIR      41  21  45 NE7       29.92R                  
JUNEAU         FAIR      46  26  45 CALM      29.92R                  
$$

LSZ147-162-200300-
LAKE SUPERIOR
  
STATION/POSITION TIME  TEMP    WIND        PRES    WAVE
                       AIR SEA DIR/SP/G            HT/PER
                 (UTC) (F)     (DEG/KT/KT) (MB)    (FT/S)
$$
 
LMZ867-665-643>646-200300-
LAKE MICHIGAN
  
STATION/POSITION TIME  TEMP    WIND        PRES    WAVE
                       AIR SEA DIR/SP/G            HT/PER
                 (UTC) (F)     (DEG/KT/KT) (MB)    (FT/S)
NORTHPORT PIER   0140   42      10/  2/  3 1013.9S
KEWAUNEE LAKESHO 0148   42      20/  7/ 10 1013.0R
SHEBOYGAN LAKESH 0200   42     350/ 14/ 16 1013.6R
MILWAUKEE LAKESH 0150   44                   N/A
KENOSHA   LAKESH 0200   42      10/ 22/ 26 1011.5
$$

TC  - TEMPERATURE IN CELSIUS
VSB - VISIBILITY IN STATUTE MILES
WCI - WIND CHILL INDEX
HX  - HEAT INDEX